#Datum;Uhrzeit;WR;Pac;DaySum;Status;WR;Pac;DaySum;Status;Pdc1;Udc;Temp;WR;Pac;DaySum;Status;Pdc1;Udc;Temp;WR;Pac;DaySum;Status;Pdc1;Udc;Temp;WR;Pac;DaySum;Status;Pdc1;Pdc2;Udc1;Udc2;Temp;WR;Pac;DaySum;Status;Pdc1;Pdc2;Udc1;Udc2;Temp;WR;Pac;DaySum;Status;Pdc1;Udc;Temp;WR;Pac;DaySum;Status;Pdc1;Udc;Temp;WR;Pac;DaySum;Status;Pdc1;Udc;Temp
23.10.19;23:55:00;1;280;8264;0;2;0;14794;0;0;0;0;3;0;9115;0;0;0;0;4;0;11751;0;0;0;0;5;0;26760;0;0;0;0;0;0;6;0;19842;0;0;0;0;0;0;7;0;19679;0;0;0;0;8;0;19258;0;0;0;0;9;0;10200;0;0;0;0
23.10.19;23:50:00;1;282;8241;0;2;0;14794;0;0;0;0;3;0;9115;0;0;0;0;4;0;11751;0;0;0;0;5;0;26760;0;0;0;0;0;0;6;0;19842;0;0;0;0;0;0;7;0;19679;0;0;0;0;8;0;19258;0;0;0;0;9;0;10200;0;0;0;0
23.10.19;23:45:00;1;292;8217;0;2;0;14794;0;0;0;0;3;0;9115;0;0;0;0;4;0;11751;0;0;0;0;5;0;26760;0;0;0;0;0;0;6;0;19842;0;0;0;0;0;0;7;0;19679;0;0;0;0;8;0;19258;0;0;0;0;9;0;10200;0;0;0;0
23.10.19;23:40:00;1;326;8192;0;2;0;14794;0;0;0;0;3;0;9115;0;0;0;0;4;0;11751;0;0;0;0;5;0;26760;0;0;0;0;0;0;6;0;19842;0;0;0;0;0;0;7;0;19679;0;0;0;0;8;0;19258;0;0;0;0;9;0;10200;0;0;0;0
23.10.19;23:35:00;1;282;8166;0;2;0;14794;0;0;0;0;3;0;9115;0;0;0;0;4;0;11751;0;0;0;0;5;0;26760;0;0;0;0;0;0;6;0;19842;0;0;0;0;0;0;7;0;19679;0;0;0;0;8;0;19258;0;0;0;0;9;0;10200;0;0;0;0
23.10.19;23:30:00;1;243;8142;0;2;0;14794;0;0;0;0;3;0;9115;0;0;0;0;4;0;11751;0;0;0;0;5;0;26760;0;0;0;0;0;0;6;0;19842;0;0;0;0;0;0;7;0;19679;0;0;0;0;8;0;19258;0;0;0;0;9;0;10200;0;0;0;0
23.10.19;23:25:00;1;259;8122;0;2;0;14794;0;0;0;0;3;0;9115;0;0;0;0;4;0;11751;0;0;0;0;5;0;26760;0;0;0;0;0;0;6;0;19842;0;0;0;0;0;0;7;0;19679;0;0;0;0;8;0;19258;0;0;0;0;9;0;10200;0;0;0;0
23.10.19;23:20:00;1;260;8100;0;2;0;14794;0;0;0;0;3;0;9115;0;0;0;0;4;0;11751;0;0;0;0;5;0;26760;0;0;0;0;0;0;6;0;19842;0;0;0;0;0;0;7;0;19679;0;0;0;0;8;0;19258;0;0;0;0;9;0;10200;0;0;0;0
23.10.19;23:15:00;1;286;8078;0;2;0;14794;0;0;0;0;3;0;9115;0;0;0;0;4;0;11751;0;0;0;0;5;0;26760;0;0;0;0;0;0;6;0;19842;0;0;0;0;0;0;7;0;19679;0;0;0;0;8;0;19258;0;0;0;0;9;0;10200;0;0;0;0
23.10.19;23:10:00;1;248;8053;0;2;0;14794;0;0;0;0;3;0;9115;0;0;0;0;4;0;11751;0;0;0;0;5;0;26760;0;0;0;0;0;0;6;0;19842;0;0;0;0;0;0;7;0;19679;0;0;0;0;8;0;19258;0;0;0;0;9;0;10200;0;0;0;0
23.10.19;23:05:00;1;219;8033;0;2;0;14794;0;0;0;0;3;0;9115;0;0;0;0;4;0;11751;0;0;0;0;5;0;26760;0;0;0;0;0;0;6;0;19842;0;0;0;0;0;0;7;0;19679;0;0;0;0;8;0;19258;0;0;0;0;9;0;10200;0;0;0;0
23.10.19;23:00:00;1;240;8015;0;2;0;14794;0;0;0;0;3;0;9115;0;0;0;0;4;0;11751;0;0;0;0;5;0;26760;0;0;0;0;0;0;6;0;19842;0;0;0;0;0;0;7;0;19679;0;0;0;0;8;0;19258;0;0;0;0;9;0;10200;0;0;0;0
23.10.19;22:55:00;1;299;7994;0;2;0;14794;0;0;0;0;3;0;9115;0;0;0;0;4;0;11751;0;0;0;0;5;0;26760;2;0;0;0;0;0;6;0;19842;2;0;0;0;0;0;7;0;19679;0;0;0;0;8;0;19258;0;0;0;0;9;0;10200;0;0;0;0
23.10.19;22:50:00;1;478;7968;0;2;0;14794;0;0;0;0;3;0;9115;0;0;0;0;4;0;11751;0;0;0;0;5;0;26760;2;0;0;0;0;0;6;0;19842;2;0;0;0;0;0;7;0;19679;0;0;0;0;8;0;19258;0;0;0;0;9;0;10200;0;0;0;0
23.10.19;22:45:00;1;897;7928;0;2;0;14794;0;0;0;0;3;0;9115;0;0;0;0;4;0;11751;0;0;0;0;5;0;26760;2;0;0;0;0;0;6;0;19842;2;0;0;0;0;0;7;0;19679;0;0;0;0;8;0;19258;0;0;0;0;9;0;10200;0;0;0;0
23.10.19;22:40:00;1;472;7839;0;2;0;14794;0;0;0;0;3;0;9115;0;0;0;0;4;0;11751;0;0;0;0;5;0;26760;2;0;0;0;0;0;6;0;19842;2;0;0;0;0;0;7;0;19679;0;0;0;0;8;0;19258;0;0;0;0;9;0;10200;0;0;0;0
23.10.19;22:35:00;1;440;7800;0;2;0;14794;0;0;0;0;3;0;9115;0;0;0;0;4;0;11751;0;0;0;0;5;0;26760;2;0;0;0;0;0;6;0;19842;2;0;0;0;0;0;7;0;19679;0;0;0;0;8;0;19258;0;0;0;0;9;0;10200;0;0;0;0
23.10.19;22:30:00;1;410;7763;0;2;0;14794;0;0;0;0;3;0;9115;0;0;0;0;4;0;11751;0;0;0;0;5;0;26760;2;0;0;0;0;0;6;0;19842;2;0;0;0;0;0;7;0;19679;0;0;0;0;8;0;19258;0;0;0;0;9;0;10200;0;0;0;0
23.10.19;22:25:00;1;409;7729;0;2;0;14794;0;0;0;0;3;0;9115;0;0;0;0;4;0;11751;0;0;0;0;5;0;26760;2;0;0;0;0;0;6;0;19842;2;0;0;0;0;0;7;0;19679;0;0;0;0;8;0;19258;0;0;0;0;9;0;10200;0;0;0;0
23.10.19;22:20:00;1;411;7695;0;2;0;14794;0;0;0;0;3;0;9115;0;0;0;0;4;0;11751;0;0;0;0;5;0;26760;2;0;0;0;0;0;6;0;19842;2;0;0;0;0;0;7;0;19679;0;0;0;0;8;0;19258;0;0;0;0;9;0;10200;0;0;0;0
23.10.19;22:15:00;1;412;7660;0;2;0;14794;0;0;0;0;3;0;9115;0;0;0;0;4;0;11751;0;0;0;0;5;0;26760;2;0;0;0;0;0;6;0;19842;2;0;0;0;0;0;7;0;19679;0;0;0;0;8;0;19258;0;0;0;0;9;0;10200;0;0;0;0
23.10.19;22:10:00;1;395;7626;0;2;0;14794;0;0;0;0;3;0;9115;0;0;0;0;4;0;11751;0;0;0;0;5;0;26760;2;0;0;0;0;0;6;0;19842;2;0;0;0;0;0;7;0;19679;0;0;0;0;8;0;19258;0;0;0;0;9;0;10200;0;0;0;0
23.10.19;22:05:00;1;449;7593;0;2;0;14794;0;0;0;0;3;0;9115;0;0;0;0;4;0;11751;0;0;0;0;5;0;26760;2;0;0;0;0;0;6;0;19842;2;0;0;0;0;0;7;0;19679;0;0;0;0;8;0;19258;0;0;0;0;9;0;10200;0;0;0;0
23.10.19;22:00:00;1;446;7556;0;2;0;14794;0;0;0;0;3;0;9115;0;0;0;0;4;0;11751;0;0;0;0;5;0;26760;2;0;0;0;0;0;6;0;19842;2;0;0;0;0;0;7;0;19679;0;0;0;0;8;0;19258;0;0;0;0;9;0;10200;0;0;0;0
23.10.19;21:55:00;1;449;7519;0;2;0;14794;0;0;0;0;3;0;9115;0;0;0;0;4;0;11751;0;0;0;0;5;0;26760;2;0;0;0;0;0;6;0;19842;2;0;0;0;0;0;7;0;19679;0;0;0;0;8;0;19258;0;0;0;0;9;0;10200;0;0;0;0
23.10.19;21:50:00;1;501;7481;0;2;0;14794;0;0;0;0;3;0;9115;0;0;0;0;4;0;11751;0;0;0;0;5;0;26760;2;0;0;0;0;0;6;0;19842;2;0;0;0;0;0;7;0;19679;0;0;0;0;8;0;19258;0;0;0;0;9;0;10200;0;0;0;0
23.10.19;21:45:00;1;455;7440;0;2;0;14794;0;0;0;0;3;0;9115;0;0;0;0;4;0;11751;0;0;0;0;5;0;26760;2;0;0;0;0;0;6;0;19842;2;0;0;0;0;0;7;0;19679;0;0;0;0;8;0;19258;0;0;0;0;9;0;10200;0;0;0;0
23.10.19;21:40:00;1;474;7402;0;2;0;14794;0;0;0;0;3;0;9115;0;0;0;0;4;0;11751;0;0;0;0;5;0;26760;2;0;0;0;0;0;6;0;19842;2;0;0;0;0;0;7;0;19679;0;0;0;0;8;0;19258;0;0;0;0;9;0;10200;0;0;0;0
23.10.19;21:35:00;1;540;7363;0;2;0;14794;0;0;0;0;3;0;9115;0;0;0;0;4;0;11751;0;0;0;0;5;0;26760;2;0;0;0;0;0;6;0;19842;2;0;0;0;0;0;7;0;19679;0;0;0;0;8;0;19258;0;0;0;0;9;0;10200;0;0;0;0
23.10.19;21:30:00;1;862;7313;0;2;0;14794;0;0;0;0;3;0;9115;0;0;0;0;4;0;11751;0;0;0;0;5;0;26760;2;0;0;0;0;0;6;0;19842;2;0;0;0;0;0;7;0;19679;0;0;0;0;8;0;19258;0;0;0;0;9;0;10200;0;0;0;0
23.10.19;21:25:00;1;446;7242;0;2;0;14794;0;0;0;0;3;0;9115;0;0;0;0;4;0;11751;0;0;0;0;5;0;26760;2;0;0;0;0;0;6;0;19842;2;0;0;0;0;0;7;0;19679;0;0;0;0;8;0;19258;0;0;0;0;9;0;10200;0;0;0;0
23.10.19;21:20:00;1;344;7206;0;2;0;14794;0;0;0;0;3;0;9115;0;0;0;0;4;0;11751;0;0;0;0;5;0;26760;2;0;0;0;0;0;6;0;19842;2;0;0;0;0;0;7;0;19679;0;0;0;0;8;0;19258;0;0;0;0;9;0;10200;0;0;0;0
23.10.19;21:15:00;1;259;7177;0;2;0;14794;0;0;0;0;3;0;9115;0;0;0;0;4;0;11751;0;0;0;0;5;0;26760;2;0;0;0;0;0;6;0;19842;2;0;0;0;0;0;7;0;19679;0;0;0;0;8;0;19258;0;0;0;0;9;0;10200;0;0;0;0
23.10.19;21:10:00;1;243;7155;0;2;0;14794;0;0;0;0;3;0;9115;0;0;0;0;4;0;11751;0;0;0;0;5;0;26760;2;0;0;0;0;0;6;0;19842;2;0;0;0;0;0;7;0;19679;0;0;0;0;8;0;19258;0;0;0;0;9;0;10200;0;0;0;0
23.10.19;21:05:00;1;388;7134;0;2;0;14794;0;0;0;0;3;0;9115;0;0;0;0;4;0;11751;0;0;0;0;5;0;26760;2;0;0;0;0;0;6;0;19842;2;0;0;0;0;0;7;0;19679;0;0;0;0;8;0;19258;0;0;0;0;9;0;10200;0;0;0;0
23.10.19;21:00:00;1;565;7099;0;2;0;14794;0;0;0;0;3;0;9115;0;0;0;0;4;0;11751;0;0;0;0;5;0;26760;2;0;0;0;0;0;6;0;19842;2;0;0;0;0;0;7;0;19679;0;0;0;0;8;0;19258;0;0;0;0;9;0;10200;0;0;0;0
23.10.19;20:55:00;1;295;7050;0;2;0;14794;0;0;0;0;3;0;9115;0;0;0;0;4;0;11751;0;0;0;0;5;0;26760;2;0;0;0;0;0;6;0;19842;2;0;0;0;0;0;7;0;19679;0;0;0;0;8;0;19258;0;0;0;0;9;0;10200;0;0;0;0
23.10.19;20:50:00;1;329;7025;0;2;0;14794;0;0;0;0;3;0;9115;0;0;0;0;4;0;11751;0;0;0;0;5;0;26760;2;0;0;0;0;0;6;0;19842;2;0;0;0;0;0;7;0;19679;0;0;0;0;8;0;19258;0;0;0;0;9;0;10200;0;0;0;0
23.10.19;20:45:00;1;334;6999;0;2;0;14794;0;0;0;0;3;0;9115;0;0;0;0;4;0;11751;0;0;0;0;5;0;26760;2;0;0;0;0;0;6;0;19842;2;0;0;0;0;0;7;0;19679;0;0;0;0;8;0;19258;0;0;0;0;9;0;10200;0;0;0;0
23.10.19;20:40:00;1;364;6969;0;2;0;14794;0;0;0;0;3;0;9115;0;0;0;0;4;0;11751;0;0;0;0;5;0;26760;2;0;0;0;0;0;6;0;19842;2;0;0;0;0;0;7;0;19679;0;0;0;0;8;0;19258;0;0;0;0;9;0;10200;0;0;0;0
23.10.19;20:35:00;1;422;6937;0;2;0;14794;0;0;0;0;3;0;9115;0;0;0;0;4;0;11751;0;0;0;0;5;0;26760;2;0;0;0;0;0;6;0;19842;2;0;0;0;0;0;7;0;19679;0;0;0;0;8;0;19258;0;0;0;0;9;0;10200;0;0;0;0
23.10.19;20:30:00;1;451;6901;0;2;0;14794;0;0;0;0;3;0;9115;0;0;0;0;4;0;11751;0;0;0;0;5;0;26760;2;0;0;0;0;0;6;0;19842;2;0;0;0;0;0;7;0;19679;0;0;0;0;8;0;19258;0;0;0;0;9;0;10200;0;0;0;0
23.10.19;20:25:00;1;557;6863;0;2;0;14794;0;0;0;0;3;0;9115;0;0;0;0;4;0;11751;0;0;0;0;5;0;26760;2;0;0;0;0;0;6;0;19842;2;0;0;0;0;0;7;0;19679;0;0;0;0;8;0;19258;0;0;0;0;9;0;10200;0;0;0;0
23.10.19;20:20:00;1;508;6816;0;2;0;14794;0;0;0;0;3;0;9115;0;0;0;0;4;0;11751;0;0;0;0;5;0;26760;2;0;0;0;0;0;6;0;19842;2;0;0;0;0;0;7;0;19679;0;0;0;0;8;0;19258;0;0;0;0;9;0;10200;0;0;0;0
23.10.19;20:15:00;1;506;6774;0;2;0;14794;0;0;0;0;3;0;9115;0;0;0;0;4;0;11751;0;0;0;0;5;0;26760;2;0;0;0;0;0;6;0;19842;2;0;0;0;0;0;7;0;19679;0;0;0;0;8;0;19258;0;0;0;0;9;0;10200;0;0;0;0
23.10.19;20:10:00;1;534;6731;0;2;0;14794;0;0;0;0;3;0;9115;0;0;0;0;4;0;11751;0;0;0;0;5;0;26760;2;0;0;0;0;0;6;0;19842;2;0;0;0;0;0;7;0;19679;0;0;0;0;8;0;19258;0;0;0;0;9;0;10200;0;0;0;0
23.10.19;20:05:00;1;567;6686;0;2;0;14794;0;0;0;0;3;0;9115;0;0;0;0;4;0;11751;0;0;0;0;5;0;26760;2;0;0;0;0;0;6;0;19842;2;0;0;0;0;0;7;0;19679;0;0;0;0;8;0;19258;0;0;0;0;9;0;10200;0;0;0;0
23.10.19;20:00:00;1;680;6639;0;2;0;14794;0;0;0;0;3;0;9115;0;0;0;0;4;0;11751;0;0;0;0;5;0;26760;2;0;0;0;0;0;6;0;19842;2;0;0;0;0;0;7;0;19679;0;0;0;0;8;0;19258;0;0;0;0;9;0;10200;0;0;0;0
23.10.19;19:55:00;1;973;6579;0;2;0;14794;0;0;0;0;3;0;9115;0;0;0;0;4;0;11751;0;0;0;0;5;0;26760;2;0;0;0;0;0;6;0;19842;2;0;0;0;0;0;7;0;19679;0;0;0;0;8;0;19258;0;0;0;0;9;0;10200;0;0;0;0
23.10.19;19:50:00;1;790;6495;0;2;0;14794;0;0;0;0;3;0;9115;0;0;0;0;4;0;11751;0;0;0;0;5;0;26760;2;0;0;0;0;0;6;0;19842;2;0;0;0;0;0;7;0;19679;0;0;0;0;8;0;19258;0;0;0;0;9;0;10200;0;0;0;0
23.10.19;19:45:00;1;658;6432;0;2;0;14794;0;0;0;0;3;0;9115;0;0;0;0;4;0;11751;0;0;0;0;5;0;26760;2;0;0;0;0;0;6;0;19842;2;0;0;0;0;0;7;0;19679;0;0;0;0;8;0;19258;0;0;0;0;9;0;10200;0;0;0;0
23.10.19;19:40:00;1;798;6375;0;2;0;14794;0;0;0;0;3;0;9115;0;0;0;0;4;0;11751;0;0;0;0;5;0;26760;2;0;0;0;0;0;6;0;19842;2;0;0;0;0;0;7;0;19679;0;0;0;0;8;0;19258;0;0;0;0;9;0;10200;0;0;0;0
23.10.19;19:35:00;1;710;6309;0;2;0;14794;0;0;0;0;3;0;9115;0;0;0;0;4;0;11751;0;0;0;0;5;0;26760;2;0;0;0;0;0;6;0;19842;2;0;0;0;0;0;7;0;19679;0;0;0;0;8;0;19258;0;0;0;0;9;0;10200;0;0;0;0
23.10.19;19:30:00;1;701;6252;0;2;0;14794;0;0;0;0;3;0;9115;0;0;0;0;4;0;11751;0;0;0;0;5;0;26760;2;0;0;0;0;0;6;0;19842;2;0;0;0;0;0;7;0;19679;0;0;0;0;8;0;19258;0;0;0;0;9;0;10200;0;0;0;0
23.10.19;19:25:00;1;809;6193;0;2;0;14794;0;0;0;0;3;0;9115;0;0;0;0;4;0;11751;0;0;0;0;5;0;26760;2;0;0;0;0;0;6;0;19842;2;0;0;0;0;0;7;0;19679;0;0;0;0;8;0;19258;0;0;0;0;9;0;10200;0;0;0;0
23.10.19;19:20:00;1;727;6125;0;2;0;14794;0;0;0;0;3;0;9115;0;0;0;0;4;0;11751;0;0;0;0;5;0;26760;2;0;0;0;0;0;6;0;19842;2;0;0;0;0;0;7;0;19679;0;0;0;0;8;0;19258;0;0;0;0;9;0;10200;0;0;0;0
23.10.19;19:15:00;1;707;6064;0;2;0;14794;0;0;0;0;3;0;9115;0;0;0;0;4;0;11751;0;0;0;0;5;0;26760;2;0;0;0;0;0;6;0;19842;2;0;0;0;0;0;7;0;19679;0;0;0;0;8;0;19258;0;0;0;0;9;0;10200;0;0;0;0
23.10.19;19:10:00;1;700;6005;0;2;0;14794;0;0;0;0;3;0;9115;0;0;0;0;4;0;11751;0;0;0;0;5;0;26760;2;0;0;0;0;0;6;0;19842;2;0;0;0;0;0;7;0;19679;0;0;0;0;8;0;19258;0;0;0;0;9;0;10200;0;0;0;0
23.10.19;19:05:00;1;699;5946;0;2;0;14794;0;0;0;0;3;0;9115;0;0;0;0;4;0;11751;0;0;0;0;5;0;26760;2;0;0;0;0;0;6;0;19842;2;0;0;0;0;0;7;0;19679;0;0;0;0;8;0;19258;0;0;0;0;9;0;10200;0;0;0;0
23.10.19;19:00:00;1;783;5885;0;2;0;14794;0;0;0;0;3;0;9115;0;0;0;0;4;0;11751;0;0;0;0;5;0;26760;2;0;0;0;0;0;6;0;19842;2;0;0;0;0;0;7;0;19679;0;0;0;0;8;0;19258;0;0;0;0;9;0;10200;0;0;0;0
23.10.19;18:55:00;1;668;5817;0;2;0;14794;0;0;0;0;3;0;9115;0;0;0;0;4;0;11751;0;0;0;0;5;0;26760;2;0;0;0;0;0;6;0;19842;2;0;0;0;0;0;7;0;19679;0;0;0;0;8;0;19258;0;0;0;0;9;0;10200;0;0;0;0
23.10.19;18:50:00;1;677;5765;0;2;0;14794;0;0;0;0;3;0;9115;0;0;0;0;4;0;11751;0;0;0;0;5;0;26760;2;0;0;0;0;0;6;0;19842;2;0;0;0;0;0;7;0;19679;0;0;0;0;8;0;19258;0;0;0;0;9;0;10200;0;0;0;0
23.10.19;18:45:00;1;528;5719;0;2;0;14794;0;0;0;0;3;0;9115;0;0;0;0;4;0;11751;0;0;0;0;5;0;26760;2;0;0;0;0;0;6;0;19842;2;0;0;0;0;0;7;0;19679;0;0;0;0;8;0;19258;0;0;0;0;9;0;10200;0;0;0;0
23.10.19;18:40:00;1;532;5675;0;2;0;14794;0;0;0;0;3;0;9115;0;0;0;0;4;0;11751;0;0;0;0;5;0;26760;2;0;0;0;0;0;6;0;19842;2;0;0;0;0;0;7;0;19679;0;0;0;0;8;0;19258;0;0;0;0;9;0;10200;0;0;0;0
23.10.19;18:35:00;1;527;5631;0;2;0;14794;0;0;0;0;3;0;9115;0;0;0;0;4;0;11751;0;0;0;0;5;0;26760;2;0;0;0;0;0;6;0;19842;2;0;0;0;0;0;7;0;19679;0;0;0;0;8;0;19258;0;0;0;0;9;0;10200;0;0;0;0
23.10.19;18:30:00;1;550;5586;0;2;0;14794;0;0;0;0;3;0;9115;0;0;0;0;4;0;11751;0;0;0;0;5;0;26760;2;0;0;0;0;0;6;0;19842;2;0;0;0;0;0;7;0;19679;0;0;0;0;8;0;19258;0;0;0;0;9;0;10200;0;0;0;0
23.10.19;18:25:00;1;523;5542;0;2;0;14794;0;0;0;0;3;0;9115;0;0;85;8;4;0;11751;0;0;0;0;5;0;26760;2;0;0;0;0;0;6;0;19842;2;0;0;0;0;0;7;0;19679;0;0;0;0;8;0;19258;0;0;0;0;9;0;10200;0;0;0;0
23.10.19;18:20:00;1;520;5498;0;2;0;14794;6;0;280;24;3;0;9115;6;0;319;25;4;0;11751;0;0;59;23;5;0;26760;2;0;0;0;0;0;6;0;19842;2;0;0;0;0;0;7;0;19679;0;0;0;0;8;0;19258;0;0;0;0;9;0;10200;0;0;0;0
23.10.19;18:15:00;1;704;5455;0;2;0;14794;6;0;326;25;3;0;9115;6;4;380;26;4;0;11751;1;0;116;28;5;0;26760;2;0;0;117;116;20;6;0;19842;1;4;0;71;138;14;7;0;19679;0;0;107;16;8;0;19258;0;0;106;11;9;0;10200;0;0;160;13
23.10.19;18:10:00;1;543;5396;0;2;0;14794;6;0;362;25;3;0;9115;6;2;440;26;4;0;11751;1;0;174;28;5;0;26760;23;0;0;378;499;35;6;0;19842;23;9;0;180;492;33;7;0;19679;6;0;342;28;8;0;19258;6;0;342;28;9;0;10200;6;0;349;23
23.10.19;18:05:00;1;511;5351;0;2;0;14794;6;0;388;26;3;1;9115;6;5;469;27;4;0;11751;1;0;190;29;5;7;26760;4;0;0;390;603;36;6;0;19842;23;13;0;259;543;34;7;0;19679;6;0;424;29;8;0;19258;6;2;401;28;9;0;10200;6;1;434;24
23.10.19;18:00:00;1;517;5309;0;2;6;14794;6;13;392;27;3;0;9115;6;0;512;27;4;0;11751;3;0;199;29;5;61;26760;1;0;12;371;590;37;6;0;19842;8;8;2;413;564;34;7;1;19679;3;8;442;29;8;0;19258;6;0;466;29;9;0;10200;4;2;479;24
23.10.19;17:55:00;1;742;5264;0;2;46;14794;4;81;356;28;3;3;9115;3;9;486;28;4;6;11751;3;7;199;30;5;100;26754;4;13;28;361;574;37;6;41;19842;1;25;17;464;284;36;7;13;19679;6;23;427;30;8;3;19258;4;8;459;29;9;2;10200;3;5;395;20
23.10.19;17:50:00;1;472;5207;0;2;76;14790;4;111;355;29;3;14;9114;6;24;483;28;4;25;11751;3;26;197;30;5;137;26745;4;30;48;361;574;37;6;71;19838;4;50;32;434;213;36;7;57;19678;4;84;356;30;8;42;19258;4;83;393;30;9;4;10199;6;8;520;25
23.10.19;17:45:00;1;504;5167;0;2;214;14784;4;256;381;29;3;118;9113;4;157;418;29;4;127;11748;3;132;207;30;5;213;26733;4;74;81;361;574;37;6;108;19832;4;75;46;434;213;36;7;151;19673;4;178;365;31;8;99;19254;4;141;421;30;9;9;10199;6;14;528;26
23.10.19;17:40:00;1;474;5124;0;2;369;14766;4;418;399;30;3;227;9103;4;267;405;29;4;304;11738;5;316;207;31;5;311;26715;4;137;118;361;574;37;6;162;19823;4;108;60;434;213;36;7;324;19660;4;368;351;31;8;170;19246;4;202;416;31;9;43;10198;6;63;508;26
23.10.19;17:35:00;1;476;5084;0;2;423;14735;4;473;392;31;3;246;9085;4;287;423;30;4;340;11713;5;354;212;31;5;355;26688;4;166;137;361;574;37;6;190;19809;4;122;69;434;213;36;7;323;19634;4;356;324;25;8;199;19232;4;236;446;31;9;70;10195;4;104;468;27
23.10.19;17:30:00;1;528;5044;0;2;570;14700;4;623;386;31;3;362;9064;4;408;417;30;4;442;11685;5;460;221;31;5;464;26658;4;228;175;381;574;38;6;243;19793;4;157;86;434;213;36;7;687;19600;4;741;457;32;8;262;19215;4;302;460;31;9;87;10189;4;118;471;27
23.10.19;17:25:00;1;539;4999;0;2;539;14653;4;591;374;32;3;331;9034;4;373;419;30;4;392;11648;5;408;215;31;5;492;26619;4;234;200;386;575;38;6;243;19773;4;134;72;433;213;36;7;686;19544;4;736;461;32;8;283;19194;4;326;429;32;9;83;10182;4;118;471;28
23.10.19;17:20:00;1;520;4955;0;2;505;14608;4;557;383;33;3;306;9007;4;348;403;31;4;364;11616;5;379;218;32;5;514;26577;4;243;214;385;578;38;6;254;19752;4;155;84;434;213;36;7;706;19487;4;753;449;33;8;357;19170;4;398;456;32;9;88;10175;4;120;478;28
23.10.19;17:15:00;1;494;4912;0;2;365;14566;4;425;382;33;3;210;8981;4;249;395;31;4;263;11586;5;274;224;32;5;429;26535;4;191;179;361;574;38;6;245;19732;4;132;96;434;294;37;7;474;19428;4;522;445;33;8;321;19140;4;367;459;33;9;77;10168;4;114;503;29
23.10.19;17:10:00;1;450;4871;0;2;656;14536;4;713;356;35;3;379;8964;4;425;404;32;4;434;11564;5;452;223;33;5;706;26500;4;332;292;393;614;38;6;522;19711;4;249;274;540;520;37;7;761;19388;4;818;457;34;8;552;19113;4;597;407;33;9;110;10161;4;145;501;29
23.10.19;17:05:00;1;418;4833;0;2;1171;14482;4;1247;368;36;3;661;8933;4;715;410;32;4;712;11528;5;742;219;33;5;1185;26437;4;591;498;402;646;39;6;903;19664;4;423;431;569;544;37;7;1512;19327;4;1598;460;34;8;995;19069;4;1055;332;27;9;146;10152;4;180;441;30
23.10.19;17:00:00;1;505;4798;0;2;1274;14386;4;1353;370;37;3;692;8878;4;748;409;33;4;716;11469;5;746;224;33;5;1297;26339;4;660;550;399;642;39;6;987;19589;4;492;513;564;549;37;7;1548;19201;4;1636;455;35;8;1398;18968;4;1479;435;34;9;197;10140;4;229;354;31
23.10.19;16:55:00;1;419;4757;0;2;1484;14280;4;1573;371;37;3;814;8821;4;874;401;33;4;816;11410;5;850;225;34;5;1572;26230;4;789;675;401;648;39;6;1195;19506;4;600;596;565;542;37;7;1845;19073;4;1943;457;35;8;1732;18853;4;1823;440;35;9;421;10124;4;459;355;32
23.10.19;16:50:00;1;432;4722;0;2;1489;14157;4;1581;376;38;3;828;8754;4;886;399;34;4;807;11343;5;840;199;34;5;1627;26098;4;815;699;398;643;39;6;1244;19406;4;623;650;563;544;37;7;1792;18921;4;1891;451;35;8;1737;18709;4;1823;447;35;9;570;10089;4;613;353;33
23.10.19;16:45:00;1;493;4686;0;2;1704;14033;4;1806;371;39;3;940;8685;4;1008;402;34;4;950;11275;5;989;200;34;5;1969;25962;4;1007;850;402;659;40;6;1496;19301;4;757;757;569;544;37;7;2166;18770;4;2283;455;36;8;2116;18565;4;2232;453;36;9;810;10042;4;865;367;34
23.10.19;16:40:00;1;507;4644;0;2;1871;13892;4;1975;370;40;3;1090;8606;4;1157;401;34;4;979;11196;5;1019;200;34;5;2286;25796;4;1196;993;400;649;40;6;1737;19175;4;878;868;568;544;37;7;2453;18593;4;2584;451;36;8;2412;18390;4;2532;455;36;9;1007;9975;4;1069;386;35
23.10.19;16:35:00;1;523;4602;0;2;2004;13736;4;2113;363;40;3;1130;8516;4;1201;407;35;4;936;11115;5;975;200;35;5;2458;25603;4;1290;1069;401;658;40;6;1875;19028;4;959;957;567;541;38;7;2609;18388;4;2737;457;36;8;2564;18188;4;2698;448;36;9;1164;9891;4;1236;436;36
23.10.19;16:30:00;1;620;4557;0;2;2057;13569;4;2166;364;41;3;1158;8422;4;1227;405;35;4;930;11037;5;968;208;35;5;2594;25398;4;1366;1130;406;653;40;6;1973;18872;4;999;997;565;540;38;7;2672;18172;4;2809;446;37;8;2636;17976;4;2766;447;36;9;1333;9795;4;1417;475;36
23.10.19;16:25:00;1;545;4505;0;2;2161;13398;4;2280;373;41;3;1190;8325;4;1262;407;35;4;975;10959;5;1015;207;35;5;2742;25183;4;1446;1204;399;648;40;6;2082;18707;4;1058;1048;565;544;38;7;2732;17946;4;2876;444;37;8;2686;17753;4;2822;454;37;9;1403;9683;4;1494;494;37
23.10.19;16:20:00;1;564;4460;0;2;2129;13219;4;2249;373;42;3;1177;8227;4;1247;402;35;4;963;10878;5;1004;203;36;5;2801;24952;4;1490;1226;403;646;41;6;2145;18532;4;1094;1068;566;546;38;7;2325;17719;4;2444;368;31;8;2746;17529;4;2889;444;37;9;1486;9567;4;1578;502;37
23.10.19;16:15:00;1;523;4413;0;2;2118;13041;4;2237;371;42;3;1165;8128;4;1235;399;36;4;936;10798;5;975;204;36;5;2845;24719;4;1509;1247;401;648;41;6;2181;18353;4;1059;1057;562;540;38;7;2742;17483;4;2885;445;38;8;2681;17300;4;2821;448;37;9;1427;9441;4;1537;505;38
23.10.19;16:10:00;1;538;4369;0;2;2515;12863;4;2654;377;43;3;1367;8031;4;1444;398;36;4;1078;10720;5;1122;233;37;5;3408;24477;4;1814;1499;399;651;41;6;2596;18168;4;1361;1340;563;541;38;7;3180;17255;4;3349;442;38;8;3132;17077;4;3286;442;38;9;1695;9322;4;1799;495;38
23.10.19;16:05:00;1;507;4324;0;2;2631;12657;4;2772;373;44;3;1425;7918;4;1505;398;36;4;1172;10631;5;1221;226;37;5;3631;24192;4;1939;1604;403;641;41;6;2759;17952;4;1417;1391;561;543;38;7;3389;16998;4;3556;444;38;8;3335;16824;4;3498;440;38;9;1456;9145;0;1541;398;31
23.10.19;16:00:00;1;572;4280;0;2;2691;12437;4;2832;372;44;3;1459;7800;4;1537;393;37;4;1287;10533;5;1341;230;37;5;3813;23887;4;2047;1677;403;640;42;6;2901;17720;4;1486;1454;559;542;38;7;3488;16711;4;3669;442;39;8;3443;16543;4;3619;443;38;9;1875;9034;4;1987;494;39
23.10.19;15:55:00;1;560;4232;0;2;2605;12213;4;2750;374;44;3;1419;7678;4;1497;399;37;4;1313;10426;5;1368;227;38;5;3776;23568;4;2019;1669;400;644;42;6;2875;17478;4;1458;1430;554;539;38;7;3487;16422;4;3661;439;39;8;3428;16257;4;3596;446;38;9;1873;8878;4;1981;487;39
23.10.19;15:50:00;1;238;4192;0;2;2727;11997;4;2875;375;45;3;1451;7560;4;1533;398;37;4;1422;10317;5;1481;223;38;5;3912;23267;4;2089;1731;398;635;42;6;2944;17248;4;1544;1518;557;537;39;7;3309;16130;4;3477;445;39;8;3244;15971;4;3408;436;39;9;1755;8722;4;1860;486;39
23.10.19;15:45:00;1;678;4172;0;2;3068;11773;4;3230;371;45;3;1648;7441;4;1735;395;38;4;1698;10200;5;1769;223;39;5;4554;22933;4;2469;2014;401;630;42;6;3459;16996;4;1797;1757;555;535;39;7;3947;15858;4;4143;442;39;8;3888;15702;4;4076;445;39;9;2127;8575;4;2246;490;40
23.10.19;15:40:00;1;315;4129;0;2;3012;11518;4;3174;373;45;3;1614;7304;4;1701;393;38;4;1789;10059;5;1863;225;39;5;4588;22553;4;2487;2029;398;634;42;6;3483;16707;4;1784;1734;555;537;39;7;3937;15530;4;4132;434;39;8;3878;15380;4;4070;439;39;9;2122;8400;4;2242;486;40
23.10.19;15:35:00;1;326;4102;0;2;3096;11266;4;3259;369;46;3;1694;7169;4;1787;401;38;4;1906;9910;5;1985;225;40;5;4771;22170;4;2573;2126;399;633;42;6;3617;16417;4;1860;1808;554;534;39;7;4015;15201;4;4211;436;39;8;3951;15054;4;4148;432;39;9;2160;8222;4;2284;484;40
23.10.19;15:30:00;1;419;4072;0;2;3146;11009;4;3313;367;46;3;1751;7028;4;1844;406;39;4;2025;9752;5;2109;223;40;5;4925;21773;4;2667;2190;393;629;42;6;3751;16114;4;1944;1901;556;533;39;7;3289;14866;4;3455;354;32;8;4047;14728;4;4251;440;39;9;2222;8044;4;2350;489;41
23.10.19;15:25:00;1;391;4038;0;2;3226;10747;4;3395;368;46;3;1886;6883;4;1991;434;39;4;2175;9584;5;2266;225;40;5;5141;21360;4;2782;2293;396;632;43;6;3900;15801;4;2018;1962;553;534;39;7;4262;14528;4;4473;436;39;8;4197;14395;4;4401;435;39;9;2296;7860;4;2431;484;41
23.10.19;15:20:00;1;301;4006;0;2;3323;10478;4;3504;371;46;3;2035;6726;4;2151;458;39;4;2344;9403;5;2442;223;41;5;5436;20928;4;2958;2425;396;627;43;6;4133;15473;4;2141;2070;553;534;39;7;4332;14169;4;4543;434;40;8;4267;14039;4;4479;436;39;9;2339;7667;4;2469;484;41
23.10.19;15:15:00;1;294;3981;0;2;3330;10201;4;3503;366;46;3;2115;6557;4;2233;470;40;4;2462;9208;5;2564;223;41;5;5590;20475;4;3042;2494;397;628;43;6;4244;15128;4;2185;2131;552;536;39;7;4378;13814;4;4598;436;39;8;4319;13690;4;4527;430;39;9;2374;7474;4;2508;479;41
23.10.19;15:10:00;1;280;3956;0;2;3415;9924;4;3596;367;46;3;2211;6380;4;2331;470;40;4;2577;9003;5;2685;222;41;5;5809;20008;4;3166;2597;396;633;42;6;4397;14774;4;2268;2213;548;526;38;7;4489;13443;4;4703;433;39;8;4413;13326;4;4625;432;39;9;2418;7274;4;2555;481;41
23.10.19;15:05:00;1;310;3932;0;2;3638;9639;4;3822;365;46;3;2357;6196;4;2480;466;39;4;2867;8788;5;2987;222;41;5;6325;19521;4;3460;2834;395;625;42;6;4799;14405;4;2480;2413;547;528;38;7;4791;13069;4;5025;429;39;8;4701;12956;4;4933;427;39;9;2583;7072;4;2732;480;41
23.10.19;15:00:00;1;304;3905;0;2;3845;9336;4;4043;364;45;3;2488;6000;4;2618;466;39;4;3147;8549;5;3278;222;41;5;6817;18989;4;3748;3050;395;630;42;6;5170;14002;4;2679;2586;551;528;38;7;5061;12670;4;5312;427;39;8;4979;12564;4;5223;430;38;9;2744;6856;4;2898;480;41
23.10.19;14:55:00;1;216;3880;0;2;4050;9016;4;4252;365;44;3;2625;5793;4;2764;469;39;4;3390;8287;5;3531;224;40;5;7296;18418;4;4011;3268;395;632;41;6;5535;13569;4;2847;2755;553;532;38;7;5318;12249;4;5586;434;38;8;5262;12150;4;5516;435;38;9;2896;6627;4;3060;481;40
23.10.19;14:50:00;1;241;3862;0;2;3874;8680;4;4075;373;43;3;2508;5574;4;2642;480;38;4;3312;8005;5;3449;226;40;5;7008;17805;4;3851;3141;401;635;41;6;5329;13104;4;2747;2654;556;540;38;7;5058;11806;4;5312;434;38;8;4979;11715;4;5219;434;38;9;2742;6389;4;2898;486;39
23.10.19;14:45:00;1;244;3842;0;2;3699;8357;4;3894;389;41;3;2412;5365;4;2543;478;37;4;3225;7729;5;3359;231;39;5;6727;17221;4;3690;2998;405;660;41;6;5142;12660;4;2651;2575;569;548;38;7;5030;11382;4;5293;459;38;8;5048;11298;4;5293;456;37;9;2820;6160;4;2980;500;38
23.10.19;14:40:00;1;243;3821;0;2;1526;8040;4;1619;379;40;3;1019;5160;4;1094;481;36;4;1435;7456;5;1495;230;38;5;3129;16665;4;1665;1371;400;651;41;6;2513;12233;4;1308;1294;555;539;38;7;2583;10961;4;2708;445;38;8;2618;10874;4;2752;446;37;9;1478;5922;4;1570;492;37